Weather History for Monroe, MI

Change the Weather History Date:

Tuesday, July 9, 2013

  Actual Average Record
Temperature  
Mean Temperature 79 °F -  
Max Temperature 87 °F 87 °F 101 °F (1936)
Min Temperature 71 °F 65 °F 51 °F (1961)
Cooling Degree Days 14    
Growing Degree Days 29 (Base 50)    
Moisture  
Dew Point 72 °F    
Average Humidity 87    
Maximum Humidity 100    
Minimum Humidity 66    
Precipitation  
Precipitation 0.00 in - - ()
Sea Level Pressure  
Sea Level Pressure 29.96 in    
Wind  
Wind Speed 4 mph (WSW)    
Max Wind Speed 22 mph    
Max Gust Speed 33 mph    
Visibility 7 miles    
Events Rain    
Averages and records for this station are not official NWS values.
T = Trace of Precipitation, MM = Missing Value Source: NWS Daily Summary

Daily Weather History Graph

Daily Weather History Graph

Search for Another Location

Airport:

Trip Planner

Search our weather history database for the weather conditions in past years. The results will help you decide how hot, cold, wet, or windy it might be!

Date:

Astronomy

Jul. 09, 2013 Rise Set
Actual Time 6:07 AM EDT 9:10 PM EDT
Civil Twilight 5:33 AM EDT 9:44 PM EDT
Nautical Twilight 4:50 AM EDT 10:27 PM EDT
Astronomical Twilight 3:59 AM EDT 11:17 PM EDT
Moon 7:32 AM EDT (7/9) 9:44 PM EDT (7/9)
Length of Visible Light 16h 10m
Length of Day
15h 03m
New Moon, 2% of the Moon is Illuminated
Jul 9
New Moon
Jul 15
First Quarter
Jul 22
Full
Jul 29
Last Quarter
Aug 6
New

Hourly Weather History & Observations

Time (EDT) Temp. Heat Index Dew Point Humidity Pressure Visibility Wind Dir Wind Speed Gust Speed Precip Events Conditions
12:13 AM 75.2 °F - 73.4 °F 94% 30.00 in 4.0 mi WSW 3.5 mph - N/A Rain Rain
12:33 AM 73.4 °F - 71.6 °F 94% 30.00 in 7.0 mi South 3.5 mph - N/A Rain Rain
12:53 AM 73.4 °F - 71.6 °F 94% 29.99 in 7.0 mi South 3.5 mph - N/A   Overcast
1:13 AM 73.4 °F - 71.6 °F 94% 29.99 in 5.0 mi Calm Calm - N/A   Overcast
1:34 AM 73.4 °F - 71.6 °F 94% 29.98 in 5.0 mi Calm Calm - N/A   Overcast
1:54 AM 73.4 °F - 71.6 °F 94% 29.98 in 5.0 mi Calm Calm - N/A   Overcast
2:14 AM 73.4 °F - 71.6 °F 94% 29.97 in 7.0 mi Calm Calm - N/A   Mostly Cloudy
2:34 AM 73.4 °F - 71.6 °F 94% 29.97 in 7.0 mi Calm Calm - N/A   Mostly Cloudy
2:54 AM 73.4 °F - 71.6 °F 94% 29.97 in 7.0 mi South 3.5 mph - N/A   Mostly Cloudy
3:14 AM 73.4 °F - 71.6 °F 94% 29.97 in 5.0 mi Calm Calm - N/A   Overcast
3:34 AM 73.4 °F - 71.6 °F 94% 29.97 in 5.0 mi SSW 3.5 mph - N/A   Mostly Cloudy
3:54 AM 73.4 °F - 71.6 °F 94% 29.97 in 5.0 mi Calm Calm - N/A   Scattered Clouds
4:14 AM 73.4 °F - 71.6 °F 94% 29.97 in 4.0 mi SSW 3.5 mph - N/A   Mostly Cloudy
4:35 AM 73.4 °F - 71.6 °F 94% 29.97 in 3.0 mi Calm Calm - N/A   Mostly Cloudy
4:55 AM 71.6 °F - 71.6 °F 100% 29.97 in 2.5 mi Calm Calm - N/A   Scattered Clouds
5:15 AM 71.6 °F - 71.6 °F 100% 29.97 in 2.5 mi Calm Calm - N/A   Mostly Cloudy
5:35 AM 71.6 °F - 71.6 °F 100% 29.97 in 2.5 mi Calm Calm - N/A   Overcast
5:55 AM 71.6 °F - 71.6 °F 100% 29.97 in 2.5 mi WSW 3.5 mph - N/A   Overcast
6:15 AM 73.4 °F - 71.6 °F 94% 29.97 in 3.0 mi Calm Calm - N/A   Overcast
6:35 AM 73.4 °F - 71.6 °F 94% 29.97 in 1.8 mi West 3.5 mph - N/A   Overcast
6:55 AM 73.4 °F - 71.6 °F 94% 29.98 in 1.5 mi WSW 3.5 mph - N/A   Overcast
7:15 AM 73.4 °F - 71.6 °F 94% 29.98 in 1.2 mi Calm Calm - N/A   Overcast
7:35 AM 73.4 °F - 71.6 °F 94% 29.98 in 1.2 mi West 3.5 mph - N/A   Overcast
7:56 AM 73.4 °F - 71.6 °F 94% 29.98 in 1.8 mi West 3.5 mph - N/A   Overcast
8:16 AM 73.4 °F - 71.6 °F 94% 29.98 in 1.8 mi WSW 3.5 mph - N/A   Overcast
8:36 AM 73.4 °F - 71.6 °F 94% 29.99 in 2.0 mi West 3.5 mph - N/A   Overcast
8:56 AM 73.4 °F - 71.6 °F 94% 29.99 in 2.5 mi West 5.8 mph - N/A   Overcast
9:16 AM 75.2 °F - 73.4 °F 94% 29.99 in 2.5 mi West 4.6 mph - N/A   Overcast
9:36 AM 75.2 °F - 71.6 °F 89% 29.99 in 3.0 mi WNW 6.9 mph - N/A   Overcast
9:51 AM 75.2 °F - 71.6 °F 89% 29.99 in 3.0 mi WNW 5.8 mph - N/A   Overcast
10:11 AM 75.2 °F - 73.4 °F 94% 29.99 in 3.0 mi West 4.6 mph - N/A   Overcast
10:31 AM 75.2 °F - 73.4 °F 94% 29.99 in 3.0 mi West 4.6 mph - N/A   Overcast
10:52 AM 75.2 °F - 73.4 °F 94% 29.99 in 3.0 mi West 6.9 mph - N/A   Overcast
11:12 AM 75.2 °F - 73.4 °F 94% 29.99 in 3.0 mi West 3.5 mph - N/A   Overcast
11:32 AM 78.8 °F - 73.4 °F 83% 29.99 in 7.0 mi West 5.8 mph - N/A   Scattered Clouds
11:52 AM 80.6 °F 85.4 °F 73.4 °F 79% 29.98 in 7.0 mi SW 6.9 mph - N/A   Scattered Clouds
12:12 PM 80.6 °F 85.4 °F 73.4 °F 79% 29.98 in 7.0 mi WNW 4.6 mph - N/A   Mostly Cloudy
12:32 PM 82.4 °F 88.2 °F 73.4 °F 74% 29.98 in 10.0 mi WSW 8.1 mph - N/A   Mostly Cloudy
12:52 PM 84.2 °F 90.9 °F 73.4 °F 70% 29.98 in 10.0 mi WSW 5.8 mph - N/A   Mostly Cloudy
1:12 PM 84.2 °F 90.9 °F 73.4 °F 70% 29.97 in 10.0 mi WSW 6.9 mph - N/A   Scattered Clouds
1:32 PM 84.2 °F 90.9 °F 73.4 °F 70% 29.97 in 10.0 mi WSW 10.4 mph - N/A   Scattered Clouds
1:52 PM 84.2 °F 90.9 °F 73.4 °F 70% 29.97 in 10.0 mi WSW 9.2 mph - N/A   Scattered Clouds
2:13 PM 84.2 °F 90.9 °F 73.4 °F 70% 29.96 in 10.0 mi West 8.1 mph - N/A   Scattered Clouds
2:33 PM 86.0 °F 93.4 °F 73.4 °F 66% 29.95 in 10.0 mi West 9.2 mph - N/A   Scattered Clouds
2:53 PM 86.0 °F 95.1 °F 75.2 °F 70% 29.95 in 10.0 mi WSW 10.4 mph - N/A   Mostly Cloudy
3:13 PM 87.8 °F 97.6 °F 75.2 °F 66% 29.94 in 10.0 mi West 9.2 mph - N/A   Scattered Clouds
3:33 PM 87.8 °F 97.6 °F 75.2 °F 66% 29.93 in 10.0 mi West 12.7 mph - N/A   Scattered Clouds
3:53 PM 87.8 °F 97.6 °F 75.2 °F 66% 29.92 in 10.0 mi West 8.1 mph - N/A   Scattered Clouds
4:13 PM 87.8 °F 97.6 °F 75.2 °F 66% 29.92 in 10.0 mi SW 4.6 mph - N/A   Scattered Clouds
4:33 PM 87.8 °F 97.6 °F 75.2 °F 66% 29.92 in 10.0 mi SW 4.6 mph - N/A   Scattered Clouds
4:53 PM 78.8 °F - 73.4 °F 83% 29.92 in 1.8 mi ENE 13.8 mph 20.7 mph N/A Rain Heavy Rain
5:13 PM 78.8 °F - 69.8 °F 74% 29.94 in 10.0 mi WSW 21.9 mph 33.4 mph N/A   Mostly Cloudy
5:34 PM 75.2 °F - 69.8 °F 83% 29.95 in 10.0 mi WNW 10.4 mph 28.8 mph N/A Rain Light Rain
5:54 PM 75.2 °F - 69.8 °F 83% 29.94 in 10.0 mi Calm Calm - N/A Rain Light Rain
6:14 PM 75.2 °F - 71.6 °F 89% 29.94 in 5.0 mi West 5.8 mph - N/A Rain Rain
6:34 PM 75.2 °F - 71.6 °F 89% 29.92 in 10.0 mi WNW 4.6 mph - N/A Rain Light Rain
6:54 PM 75.2 °F - 71.6 °F 89% 29.91 in 10.0 mi WNW 8.1 mph - N/A Rain Light Rain
7:14 PM 75.2 °F - 71.6 °F 89% 29.90 in 10.0 mi WNW 8.1 mph - N/A Rain Light Rain
7:34 PM 75.2 °F - 71.6 °F 89% 29.90 in 10.0 mi WNW 4.6 mph - N/A Rain Light Rain
7:54 PM 75.2 °F - 71.6 °F 89% 29.90 in 10.0 mi West 3.5 mph - N/A Rain Light Rain
8:14 PM 75.2 °F - 71.6 °F 89% 29.91 in 10.0 mi SSW 4.6 mph - N/A   Light Drizzle
8:34 PM 75.2 °F - 71.6 °F 89% 29.91 in 10.0 mi Calm Calm - N/A   Scattered Clouds
8:55 PM 75.2 °F - 71.6 °F 89% 29.91 in 10.0 mi Calm Calm - N/A   Overcast
9:15 PM 75.2 °F - 71.6 °F 89% 29.91 in 10.0 mi SSW 3.5 mph - N/A   Overcast
9:35 PM 73.4 °F - 71.6 °F 94% 29.92 in 10.0 mi SSW 4.6 mph - N/A   Mostly Cloudy
9:55 PM 73.4 °F - 71.6 °F 94% 29.92 in 10.0 mi South 4.6 mph - N/A   Overcast
10:15 PM 73.4 °F - 71.6 °F 94% 29.93 in 10.0 mi South 6.9 mph - N/A   Mostly Cloudy
10:35 PM 73.4 °F - 71.6 °F 94% 29.93 in 10.0 mi SSW 6.9 mph - N/A   Mostly Cloudy
10:55 PM 75.2 °F - 71.6 °F 89% 29.92 in 10.0 mi SSW 5.8 mph - N/A   Overcast
11:15 PM 75.2 °F - 71.6 °F 89% 29.92 in 10.0 mi SSW 6.9 mph - N/A   Overcast
11:35 PM 75.2 °F - 71.6 °F 89% 29.91 in 7.0 mi South 5.8 mph - N/A Rain Light Rain
11:56 PM 75.2 °F - 71.6 °F 89% 29.90 in 7.0 mi South 5.8 mph - N/A   Mostly Cloudy